星链-11305 (STARLINK-11305)

导读

STARLINK-11305是美国SpaceX公司于2024年9月25日发射的星链(Starlink)系列低轨通信卫星,隶属于星链全球卫星互联网星座。星链项目旨在为全球,尤其是偏远、无网络覆盖区域提供高速低延迟宽带互联网服务,并可支撑应急通信、科研及航空航海联网等应用场景。作为星链星座扩容的一环,该卫星将进一步提升星座的全球覆盖能力与通信服务稳定性,助力SpaceX持续推进低轨卫星互联网基础设施建设。

基本信息
目录编号:
61247
目录名称:
STARLINK-11305
国际标识:
2024-175E
轨道中心:
EARTH
卫星名称:
星链-11305
卫星全名:
星链-11305 (STARLINK-11305)
卫星状态:
在轨 (已飞行716 天)
发射日期:
2024-09-25 UTC
国别 :
美国 (US)
星等 :
--
该卫星已列入 空间交会检测服务 Space Conjunction Data Service (SCDS) ,当前飞行风险评估等级: 无高风险
轨道信息
数据来源 国际轨道数据 AOE轨道数据
星历时间 2026-09-09T16:09:47+0800
2天前
查看轨道信息
2026-09-06T23:00:00+0800
5天前
查看轨道信息
半长轴 6737.891km 6737.82km
偏心率 0.0001929 0.000142
轨道倾角 53.155° 53.159°
近地点辐角 92.418° 137.483°
升交点赤经 230.731° 244.119°
平近点角 267.706° 350.772°
近地点 358.454km 358.726km
远地点 361.054km 360.64km
周期 91.737分钟 91.736分钟
每日圈数 15.697007 15.697256
详细信息
固有亮度:
5
最大亮度:
2.5
卫星平台:
Starlink V1.0
覆盖范围:
全球
运营商:
太空探索技术公司
运营商所在国:
美国
制造商(研发单位):
太空探索技术公司
制造商所在国:
美国
使用方式:
暂无
卫星简介
Starlink 计划是 SpaceX 推出的全球卫星互联网项目,通过发射低轨道卫星,为全球尤其是偏远地区提供高速、低延迟的互联网服务。自 2019 年起,Starlink 已部署数千颗卫星,旨在缩小全球数字鸿沟,推动互联网普及。该项目还为军事、航空等行业提供通信支持,带来广泛经济效益。
2D轨道图
3D轨道图
轨道高度分析图
轨道倾角分析图
轨道综合分析图
查看轨道综合分析图
交会数据列表
事件ID 空间交会对象 最接近时刻(TCA) 交会距离 交会风险概率(CRP) 交会风险指数(CRI) 操作
CDM_260912-195903-486106-124721
2026-09-12T
19:59:44+0000
2.676 km
极远距离
7.317684E-7 极低风险 0.32
与全量物体交会距离演化趋势
与全量物体交会风险概率演化趋势